{"data":{"norad_id":55110,"intl_designator":"2023-001DF","name":"ASTROCAST-0401","alt_names":[],"object_type":"PAYLOAD","status":"ACTIVE","operator":null,"country":"SWTZ","launch_date":"2023-01-03","launch_site_code":"AFETR","launch_vehicle":null,"mission":null,"orbit_class":"UNKNOWN","rcs_meters":null,"size_class":null,"mass_kg":null,"dimensions":null,"purposes":[],"wikipedia_slug":null,"has_3d_model":false,"image_url":null,"decayed_at":null,"tle_current":{"epoch":"2026-09-21T15:03:08.228448Z","epoch_age_seconds":70869,"freshness":"FRESH","line1":"1 55110U 23001DF  26264.62717857  .00016343  00000+0  54962-3 0  9996","line2":"2 55110  97.5546 359.1697 0007486 216.4250 143.6482 15.30862788205941","mean_motion":15.30862788,"eccentricity":0.0007486,"inclination_deg":97.5546,"raan_deg":359.1697,"arg_perigee_deg":216.425,"mean_anomaly_deg":143.6482,"bstar":0.00054962,"rev_number":20594,"period_min":94.064602738257,"perigee_km":468.10787950918,"apogee_km":478.36575638942,"semimajor_km":6851.3738179493,"source":"CELESTRAK","updated_at":"2026-09-22T09:00:25.272111Z"}}}